Torna al catalogo

ARIANE 44L R/B

AttivoHEO
NORAD 26696·ROCKET BODY·🇫🇷 France

Lanciato Feb 7, 2001 da Guiana Space Centre

Loading…

Prossimi Passaggi (prossime 24 ore)

TLE

AggiornatoSource: Space-Track

Epoca: Sep 14, 2026, 10:45 UTC

1 26696U 01005C   26257.44805592  .00001193  00000-0  89397-3 0  9997
2 26696   7.3982   8.6031 6882707 272.0501  17.2958  2.75578525232008

Traccia ARIANE 44L R/B in tempo reale con AllMySat

Download on the App Store